Location: Guilderland
(42.7045°N, 73.9115°W)
Time: 14:58:46
(UTC+00:00)

SL-16 R/B - Pass Details

Date: 24 January 2020
Orbit: 841 x 848 km, 71.0° (Epoch: 23 February)

Event Time Altitude Azimuth Distance (km) Brightness Sun altitude
Rises 22:27:28 0° 342° (NNW) 3,417 5.3 -5.8°
Reaches altitude 10° 22:30:13 10° 353° (N) 2,477 4.5 -6.3°
Maximum altitude 22:35:16 32° 55° (NE) 1,421 2.9 -7.2°
Drops below altitude 10° 22:40:16 10° 118° (ESE) 2,460 4.2 -8.0°
Sets 22:42:58 0° 128° (SE) 3,391 5.0 -8.5°
